Year,Month,Day,Hour,Minute,Value (Times are PST for temperature in C)
2014,04,15,00,00,9.90
2014,04,15,00,01,9.80
2014,04,15,00,02,9.80
2014,04,15,00,03,9.90
2014,04,15,00,04,9.90
2014,04,15,00,05,9.90
2014,04,15,00,06,9.90
2014,04,15,00,07,9.90
2014,04,15,00,08,9.90
2014,04,15,00,09,9.90
2014,04,15,00,10,9.90
2014,04,15,00,11,9.90
2014,04,15,00,12,9.90
2014,04,15,00,13,9.80
2014,04,15,00,14,9.80
2014,04,15,00,15,9.80
2014,04,15,00,16,9.70
2014,04,15,00,17,9.70
2014,04,15,00,18,9.60
2014,04,15,00,19,9.60
2014,04,15,00,20,9.50
2014,04,15,00,21,9.40
2014,04,15,00,22,9.30
2014,04,15,00,23,9.30
2014,04,15,00,24,9.20
2014,04,15,00,25,9.20
2014,04,15,00,26,9.10
2014,04,15,00,27,9.00
2014,04,15,00,28,9.00
2014,04,15,00,29,8.90
2014,04,15,00,30,8.80
2014,04,15,00,31,8.80
2014,04,15,00,32,8.80
2014,04,15,00,33,8.70
2014,04,15,00,34,8.60
2014,04,15,00,35,8.60
2014,04,15,00,36,8.50
2014,04,15,00,37,8.50
2014,04,15,00,38,8.40
2014,04,15,00,39,8.30
2014,04,15,00,40,8.30
2014,04,15,00,41,8.20
2014,04,15,00,42,8.10
2014,04,15,00,43,8.10
2014,04,15,00,44,8.00
2014,04,15,00,45,8.00
2014,04,15,00,46,8.00
2014,04,15,00,47,7.90
2014,04,15,00,48,7.90
2014,04,15,00,49,7.80
2014,04,15,00,50,7.80
2014,04,15,00,51,7.80
2014,04,15,00,52,7.80
2014,04,15,00,53,7.70
2014,04,15,00,54,7.70
2014,04,15,00,55,7.70
2014,04,15,00,56,7.70
2014,04,15,00,57,7.70
2014,04,15,00,58,7.70
2014,04,15,00,59,7.80
2014,04,15,01,00,7.80
2014,04,15,01,01,7.80
2014,04,15,01,02,7.90
2014,04,15,01,03,7.90
2014,04,15,01,04,7.90
2014,04,15,01,05,7.90
2014,04,15,01,06,7.90
2014,04,15,01,07,7.90
2014,04,15,01,08,7.90
2014,04,15,01,09,7.90
2014,04,15,01,10,7.80
2014,04,15,01,11,7.80
2014,04,15,01,12,7.70
2014,04,15,01,13,7.70
2014,04,15,01,14,7.60
2014,04,15,01,15,7.60
2014,04,15,01,16,7.60
2014,04,15,01,17,7.60
2014,04,15,01,18,7.50
2014,04,15,01,19,7.50
2014,04,15,01,20,7.50
2014,04,15,01,21,7.50
2014,04,15,01,22,7.40
2014,04,15,01,23,7.40
2014,04,15,01,24,7.40
2014,04,15,01,25,7.40
2014,04,15,01,26,7.40
2014,04,15,01,27,7.30
2014,04,15,01,28,7.30
2014,04,15,01,29,7.30
2014,04,15,01,30,7.20
2014,04,15,01,31,7.20
2014,04,15,01,32,7.10
2014,04,15,01,33,7.10
2014,04,15,01,34,7.00
2014,04,15,01,35,7.00
2014,04,15,01,36,7.00
2014,04,15,01,37,7.00
2014,04,15,01,38,6.90
2014,04,15,01,39,6.90
2014,04,15,01,40,6.90
2014,04,15,01,41,6.90
2014,04,15,01,42,6.90
2014,04,15,01,43,6.90
2014,04,15,01,44,6.80
2014,04,15,01,45,6.80
2014,04,15,01,46,6.80
2014,04,15,01,47,6.70
2014,04,15,01,48,6.70
2014,04,15,01,49,6.70
2014,04,15,01,50,6.60
2014,04,15,01,51,6.60
2014,04,15,01,52,6.60
2014,04,15,01,53,6.60
2014,04,15,01,54,6.50
2014,04,15,01,55,6.50
2014,04,15,01,56,6.50
2014,04,15,01,57,6.40
2014,04,15,01,58,6.40
2014,04,15,01,59,6.40
2014,04,15,02,00,6.30
2014,04,15,02,01,6.30
2014,04,15,02,02,6.30
2014,04,15,02,03,6.30
2014,04,15,02,04,6.30
2014,04,15,02,05,6.30
2014,04,15,02,06,6.30
2014,04,15,02,07,6.30
2014,04,15,02,08,6.30
2014,04,15,02,09,6.30
2014,04,15,02,10,6.30
2014,04,15,02,11,6.30
2014,04,15,02,12,6.30
2014,04,15,02,13,6.30
2014,04,15,02,14,6.30
2014,04,15,02,15,6.30
2014,04,15,02,16,6.30
2014,04,15,02,17,6.30
2014,04,15,02,18,6.30
2014,04,15,02,19,6.30
2014,04,15,02,20,6.30
2014,04,15,02,21,6.30
2014,04,15,02,22,6.30
2014,04,15,02,23,6.30
2014,04,15,02,24,6.30
2014,04,15,02,25,6.30
2014,04,15,02,26,6.30
2014,04,15,02,27,6.30
2014,04,15,02,28,6.30
2014,04,15,02,29,6.30
2014,04,15,02,30,6.30
2014,04,15,02,31,6.30
2014,04,15,02,32,6.30
2014,04,15,02,33,6.40
2014,04,15,02,34,6.40
2014,04,15,02,35,6.40
2014,04,15,02,36,6.40
2014,04,15,02,37,6.40
2014,04,15,02,38,6.40
2014,04,15,02,39,6.40
2014,04,15,02,40,6.40
2014,04,15,02,41,6.40
2014,04,15,02,42,6.40
2014,04,15,02,43,6.40
2014,04,15,02,44,6.30
2014,04,15,02,45,6.30
2014,04,15,02,46,6.30
2014,04,15,02,47,6.20
2014,04,15,02,48,6.20
2014,04,15,02,49,6.20
2014,04,15,02,50,6.10
2014,04,15,02,51,6.10
2014,04,15,02,52,6.00
2014,04,15,02,53,6.00
2014,04,15,02,54,5.90
2014,04,15,02,55,5.90
2014,04,15,02,56,5.90
2014,04,15,02,57,5.90
2014,04,15,02,58,5.90
2014,04,15,02,59,5.90
2014,04,15,03,00,5.80
2014,04,15,03,01,5.80
2014,04,15,03,02,5.80
2014,04,15,03,03,5.80
2014,04,15,03,04,5.80
2014,04,15,03,05,5.80
2014,04,15,03,06,5.80
2014,04,15,03,07,5.80
2014,04,15,03,08,5.80
2014,04,15,03,09,5.80
2014,04,15,03,10,5.80
2014,04,15,03,11,5.80
2014,04,15,03,12,5.80
2014,04,15,03,13,5.80
2014,04,15,03,14,5.70
2014,04,15,03,15,5.70
2014,04,15,03,16,5.70
2014,04,15,03,17,5.70
2014,04,15,03,18,5.70
2014,04,15,03,19,5.70
2014,04,15,03,20,5.60
2014,04,15,03,21,5.60
2014,04,15,03,22,5.60
2014,04,15,03,23,5.60
2014,04,15,03,24,5.50
2014,04,15,03,25,5.50
2014,04,15,03,26,5.50
2014,04,15,03,27,5.50
2014,04,15,03,28,5.50
2014,04,15,03,29,5.50
2014,04,15,03,30,5.50
2014,04,15,03,31,5.50
2014,04,15,03,32,5.40
2014,04,15,03,33,5.40
2014,04,15,03,34,5.40
2014,04,15,03,35,5.40
2014,04,15,03,36,5.40
2014,04,15,03,37,5.40
2014,04,15,03,38,5.40
2014,04,15,03,39,5.30
2014,04,15,03,40,5.30
2014,04,15,03,41,5.30
2014,04,15,03,42,5.30
2014,04,15,03,43,5.30
2014,04,15,03,44,5.20
2014,04,15,03,45,5.20
2014,04,15,03,46,5.20
2014,04,15,03,47,5.20
2014,04,15,03,48,5.20
2014,04,15,03,49,5.10
2014,04,15,03,50,5.10
2014,04,15,03,51,5.10
2014,04,15,03,52,5.10
2014,04,15,03,53,5.10
2014,04,15,03,54,5.10
2014,04,15,03,55,5.10
2014,04,15,03,56,5.10
2014,04,15,03,57,5.10
2014,04,15,03,58,5.00
2014,04,15,03,59,5.10
2014,04,15,04,00,5.10
2014,04,15,04,01,5.10
2014,04,15,04,02,5.10
2014,04,15,04,03,5.10
2014,04,15,04,04,5.00
2014,04,15,04,05,5.00
2014,04,15,04,06,5.10
2014,04,15,04,07,5.10
2014,04,15,04,08,5.10
2014,04,15,04,09,5.20
2014,04,15,04,10,5.20
2014,04,15,04,11,5.20
2014,04,15,04,12,5.20
2014,04,15,04,13,5.20
2014,04,15,04,14,5.20
2014,04,15,04,15,5.20
2014,04,15,04,16,5.20
2014,04,15,04,17,5.10
2014,04,15,04,18,5.10
2014,04,15,04,19,5.00
2014,04,15,04,20,5.00
2014,04,15,04,21,5.00
2014,04,15,04,22,4.90
2014,04,15,04,23,4.90
2014,04,15,04,24,4.90
2014,04,15,04,25,4.90
2014,04,15,04,26,4.80
2014,04,15,04,27,4.80
2014,04,15,04,28,4.80
2014,04,15,04,29,4.80
2014,04,15,04,30,4.80
2014,04,15,04,31,4.80
2014,04,15,04,32,4.70
2014,04,15,04,33,4.70
2014,04,15,04,34,4.70
2014,04,15,04,35,4.70
2014,04,15,04,36,4.70
2014,04,15,04,37,4.70
2014,04,15,04,38,4.70
2014,04,15,04,39,4.70
2014,04,15,04,40,4.70
2014,04,15,04,41,4.70
2014,04,15,04,42,4.70
2014,04,15,04,43,4.60
2014,04,15,04,44,4.60
2014,04,15,04,45,4.60
2014,04,15,04,46,4.60
2014,04,15,04,47,4.60
2014,04,15,04,48,4.60
2014,04,15,04,49,4.60
2014,04,15,04,50,4.60
2014,04,15,04,51,4.60
2014,04,15,04,52,4.60
2014,04,15,04,53,4.50
2014,04,15,04,54,4.50
2014,04,15,04,55,4.50
2014,04,15,04,56,4.50
2014,04,15,04,57,4.50
2014,04,15,04,58,4.50
2014,04,15,04,59,4.50
2014,04,15,05,00,4.50
2014,04,15,05,01,4.50
2014,04,15,05,02,4.50
2014,04,15,05,03,4.50
2014,04,15,05,04,4.50
2014,04,15,05,05,4.50
2014,04,15,05,06,4.50
2014,04,15,05,07,4.50
2014,04,15,05,08,4.50
2014,04,15,05,09,4.50
2014,04,15,05,10,4.50
2014,04,15,05,11,4.50
2014,04,15,05,12,4.60
2014,04,15,05,13,4.60
2014,04,15,05,14,4.60
2014,04,15,05,15,4.60
2014,04,15,05,16,4.60
2014,04,15,05,17,4.60
2014,04,15,05,18,4.60
2014,04,15,05,19,4.60
2014,04,15,05,20,4.60
2014,04,15,05,21,4.60
2014,04,15,05,22,4.60
2014,04,15,05,23,4.60
2014,04,15,05,24,4.60
2014,04,15,05,25,4.60
2014,04,15,05,26,4.60
2014,04,15,05,27,4.60
2014,04,15,05,28,4.60
2014,04,15,05,29,4.50
2014,04,15,05,30,4.50
2014,04,15,05,31,4.50
2014,04,15,05,32,4.50
2014,04,15,05,33,4.50
2014,04,15,05,34,4.50
2014,04,15,05,35,4.50
2014,04,15,05,36,4.50
2014,04,15,05,37,4.40
2014,04,15,05,38,4.40
2014,04,15,05,39,4.40
2014,04,15,05,40,4.50
2014,04,15,05,41,4.40
2014,04,15,05,42,4.40
2014,04,15,05,43,4.40
2014,04,15,05,44,4.40
2014,04,15,05,45,4.40
2014,04,15,05,46,4.30
2014,04,15,05,47,4.30
2014,04,15,05,48,4.30
2014,04,15,05,49,4.30
2014,04,15,05,50,4.30
2014,04,15,05,51,4.40
2014,04,15,05,52,4.40
2014,04,15,05,53,4.40
2014,04,15,05,54,4.40
2014,04,15,05,55,4.40
2014,04,15,05,56,4.40
2014,04,15,05,57,4.40
2014,04,15,05,58,4.40
2014,04,15,05,59,4.40
2014,04,15,06,00,4.40
2014,04,15,06,01,4.30
2014,04,15,06,02,4.30
2014,04,15,06,03,4.30
2014,04,15,06,04,4.40
2014,04,15,06,05,4.30
2014,04,15,06,06,4.30
2014,04,15,06,07,4.30
2014,04,15,06,08,4.30
2014,04,15,06,09,4.30
2014,04,15,06,10,4.30
2014,04,15,06,11,4.30
2014,04,15,06,12,4.30
2014,04,15,06,13,4.30
2014,04,15,06,14,4.20
2014,04,15,06,15,4.20
2014,04,15,06,16,4.20
2014,04,15,06,17,4.10
2014,04,15,06,18,4.10
2014,04,15,06,19,4.10
2014,04,15,06,20,4.10
2014,04,15,06,21,4.10
2014,04,15,06,22,4.00
2014,04,15,06,23,4.00
2014,04,15,06,24,4.00
2014,04,15,06,25,4.00
2014,04,15,06,26,4.00
2014,04,15,06,27,4.00
2014,04,15,06,28,4.10
2014,04,15,06,29,4.10
2014,04,15,06,30,4.10
2014,04,15,06,31,4.20
2014,04,15,06,32,4.20
2014,04,15,06,33,4.30
2014,04,15,06,34,4.30
2014,04,15,06,35,4.30
2014,04,15,06,36,4.30
2014,04,15,06,37,4.30
2014,04,15,06,38,4.30
2014,04,15,06,39,4.30
2014,04,15,06,40,4.30
2014,04,15,06,41,4.30
2014,04,15,06,42,4.30
2014,04,15,06,43,4.30
2014,04,15,06,44,4.30
2014,04,15,06,45,4.30
2014,04,15,06,46,4.40
2014,04,15,06,47,4.40
2014,04,15,06,48,4.40
2014,04,15,06,49,4.40
2014,04,15,06,50,4.40
2014,04,15,06,51,4.40
2014,04,15,06,52,4.40
2014,04,15,06,53,4.40
2014,04,15,06,54,4.40
2014,04,15,06,55,4.40
2014,04,15,06,56,4.40
2014,04,15,06,57,4.40
2014,04,15,06,58,4.40
2014,04,15,06,59,4.40
2014,04,15,07,00,4.50
2014,04,15,07,01,4.50
2014,04,15,07,02,4.50
2014,04,15,07,03,4.50
2014,04,15,07,04,4.50
2014,04,15,07,05,4.60
2014,04,15,07,06,4.60
2014,04,15,07,07,4.60
2014,04,15,07,08,4.60
2014,04,15,07,09,4.60
2014,04,15,07,10,4.60
2014,04,15,07,11,4.70
2014,04,15,07,12,4.70
2014,04,15,07,13,4.70
2014,04,15,07,14,4.70
2014,04,15,07,15,4.70
2014,04,15,07,16,4.70
2014,04,15,07,17,4.80
2014,04,15,07,18,4.80
2014,04,15,07,19,4.90
2014,04,15,07,20,5.00
2014,04,15,07,21,5.20
2014,04,15,07,22,5.40
2014,04,15,07,23,5.50
2014,04,15,07,24,5.60
2014,04,15,07,25,5.70
2014,04,15,07,26,5.80
2014,04,15,07,27,5.90
2014,04,15,07,28,6.00
2014,04,15,07,29,6.10
2014,04,15,07,30,6.20
2014,04,15,07,31,6.30
2014,04,15,07,32,6.40
2014,04,15,07,33,6.50
2014,04,15,07,34,6.60
2014,04,15,07,35,6.70
2014,04,15,07,36,6.70
2014,04,15,07,37,6.80
2014,04,15,07,38,6.90
2014,04,15,07,39,7.00
2014,04,15,07,40,7.00
2014,04,15,07,41,7.10
2014,04,15,07,42,7.10
2014,04,15,07,43,7.20
2014,04,15,07,44,7.30
2014,04,15,07,45,7.40
2014,04,15,07,46,7.50
2014,04,15,07,47,7.50
2014,04,15,07,48,7.60
2014,04,15,07,49,7.70
2014,04,15,07,50,7.70
2014,04,15,07,51,7.80
2014,04,15,07,52,7.90
2014,04,15,07,53,8.00
2014,04,15,07,54,8.10
2014,04,15,07,55,8.30
2014,04,15,07,56,8.40
2014,04,15,07,57,8.50
2014,04,15,07,58,8.70
2014,04,15,07,59,8.70
2014,04,15,08,00,8.80
2014,04,15,08,01,8.90
2014,04,15,08,02,8.90
2014,04,15,08,03,8.90
2014,04,15,08,04,8.90
2014,04,15,08,05,9.00
2014,04,15,08,06,9.00
2014,04,15,08,07,9.00
2014,04,15,08,08,9.00
2014,04,15,08,09,9.00
2014,04,15,08,10,9.00
2014,04,15,08,11,9.00
2014,04,15,08,12,9.00
2014,04,15,08,13,9.00
2014,04,15,08,14,9.00
2014,04,15,08,15,9.00
2014,04,15,08,16,9.00
2014,04,15,08,17,9.00
2014,04,15,08,18,9.00
2014,04,15,08,19,9.00
2014,04,15,08,20,9.00
2014,04,15,08,21,9.00
2014,04,15,08,22,9.10
2014,04,15,08,23,9.10
2014,04,15,08,24,9.10
2014,04,15,08,25,9.10
2014,04,15,08,26,9.10
2014,04,15,08,27,9.20
2014,04,15,08,28,9.20
2014,04,15,08,29,9.20
2014,04,15,08,30,9.20
2014,04,15,08,31,9.20
2014,04,15,08,32,9.20
2014,04,15,08,33,9.30
2014,04,15,08,34,9.30
2014,04,15,08,35,9.30
2014,04,15,08,36,9.30
2014,04,15,08,37,9.30
2014,04,15,08,38,9.30
2014,04,15,08,39,9.30
2014,04,15,08,40,9.40
2014,04,15,08,41,9.40
2014,04,15,08,42,9.40
2014,04,15,08,43,9.40
2014,04,15,08,44,9.50
2014,04,15,08,45,9.60
2014,04,15,08,46,9.60
2014,04,15,08,47,9.70
2014,04,15,08,48,9.80
2014,04,15,08,49,9.80
2014,04,15,08,50,9.90
2014,04,15,08,51,9.90
2014,04,15,08,52,9.90
2014,04,15,08,53,9.90
2014,04,15,08,54,9.90
2014,04,15,08,55,9.90
2014,04,15,08,56,9.90
2014,04,15,08,57,9.90
2014,04,15,08,58,9.90
2014,04,15,08,59,9.90
2014,04,15,09,00,9.90
2014,04,15,09,01,9.90
2014,04,15,09,02,9.90
2014,04,15,09,03,9.90
2014,04,15,09,04,9.90
2014,04,15,09,05,10.00
2014,04,15,09,06,10.00
2014,04,15,09,07,10.00
2014,04,15,09,08,10.10
2014,04,15,09,09,10.10
2014,04,15,09,10,10.20
2014,04,15,09,11,10.20
2014,04,15,09,12,10.30
2014,04,15,09,13,10.30
2014,04,15,09,14,10.40
2014,04,15,09,15,10.40
2014,04,15,09,16,10.50
2014,04,15,09,17,10.60
2014,04,15,09,18,10.60
2014,04,15,09,19,10.60
2014,04,15,09,20,10.70
2014,04,15,09,21,10.70
2014,04,15,09,22,10.60
2014,04,15,09,23,10.60
2014,04,15,09,24,10.60
2014,04,15,09,25,10.70
2014,04,15,09,26,10.70
2014,04,15,09,27,10.80
2014,04,15,09,28,10.80
2014,04,15,09,29,10.80
2014,04,15,09,30,10.90
2014,04,15,09,31,10.90
2014,04,15,09,32,11.00
2014,04,15,09,33,11.10
2014,04,15,09,34,11.10
2014,04,15,09,35,11.20
2014,04,15,09,36,11.30
2014,04,15,09,37,11.30
2014,04,15,09,38,11.40
2014,04,15,09,39,11.50
2014,04,15,09,40,11.60
2014,04,15,09,41,11.70
2014,04,15,09,42,11.70
2014,04,15,09,43,11.70
2014,04,15,09,44,11.70
2014,04,15,09,45,11.70
2014,04,15,09,46,11.70
2014,04,15,09,47,11.70
2014,04,15,09,48,11.70
2014,04,15,09,49,11.70
2014,04,15,09,50,11.80
2014,04,15,09,51,11.90
2014,04,15,09,52,11.90
2014,04,15,09,53,12.00
2014,04,15,09,54,12.00
2014,04,15,09,55,12.00
2014,04,15,09,56,12.00
2014,04,15,09,57,11.90
2014,04,15,09,58,11.90
2014,04,15,09,59,12.00
2014,04,15,10,00,12.00
2014,04,15,10,01,12.10
2014,04,15,10,02,12.20
2014,04,15,10,03,12.20
2014,04,15,10,04,12.10
2014,04,15,10,05,12.10
2014,04,15,10,06,12.10
2014,04,15,10,07,12.10
2014,04,15,10,08,12.00
2014,04,15,10,09,12.10
2014,04,15,10,10,12.10
2014,04,15,10,11,12.10
2014,04,15,10,12,12.20
2014,04,15,10,13,12.30
2014,04,15,10,14,12.40
2014,04,15,10,15,12.50
2014,04,15,10,16,12.50
2014,04,15,10,17,12.60
2014,04,15,10,18,12.70
2014,04,15,10,19,12.80
2014,04,15,10,20,12.80
2014,04,15,10,21,12.80
2014,04,15,10,22,12.80
2014,04,15,10,23,12.80
2014,04,15,10,24,12.80
2014,04,15,10,25,12.80
2014,04,15,10,26,12.80
2014,04,15,10,27,12.80
2014,04,15,10,28,12.80
2014,04,15,10,29,12.70
2014,04,15,10,30,12.80
2014,04,15,10,31,12.80
2014,04,15,10,32,12.90
2014,04,15,10,33,12.90
2014,04,15,10,34,13.00
2014,04,15,10,35,13.00
2014,04,15,10,36,13.20
2014,04,15,10,37,13.30
2014,04,15,10,38,13.40
2014,04,15,10,39,13.40
2014,04,15,10,40,13.50
2014,04,15,10,41,13.50
2014,04,15,10,42,13.60
2014,04,15,10,43,13.60
2014,04,15,10,44,13.70
2014,04,15,10,45,13.70
2014,04,15,10,46,13.70
2014,04,15,10,47,13.80
2014,04,15,10,48,13.80
2014,04,15,10,49,13.80
2014,04,15,10,50,13.90
2014,04,15,10,51,13.90
2014,04,15,10,52,14.00
2014,04,15,10,53,14.10
2014,04,15,10,54,14.20
2014,04,15,10,55,14.20
2014,04,15,10,56,14.30
2014,04,15,10,57,14.30
2014,04,15,10,58,14.30
2014,04,15,10,59,14.20
2014,04,15,11,00,14.10
2014,04,15,11,01,14.10
2014,04,15,11,02,14.20
2014,04,15,11,03,14.20
2014,04,15,11,04,14.30
2014,04,15,11,05,14.30
2014,04,15,11,06,14.40
2014,04,15,11,07,14.40
2014,04,15,11,08,14.40
2014,04,15,11,09,14.50
2014,04,15,11,10,14.50
2014,04,15,11,11,14.50
2014,04,15,11,12,14.40
2014,04,15,11,13,14.40
2014,04,15,11,14,14.40
2014,04,15,11,15,14.40
2014,04,15,11,16,14.40
2014,04,15,11,17,14.40
2014,04,15,11,18,14.50
2014,04,15,11,19,14.50
2014,04,15,11,20,14.60
2014,04,15,11,21,14.60
2014,04,15,11,22,14.60
2014,04,15,11,23,14.70
2014,04,15,11,24,14.60
2014,04,15,11,25,14.60
2014,04,15,11,26,14.60
2014,04,15,11,27,14.50
2014,04,15,11,28,14.40
2014,04,15,11,29,14.30
2014,04,15,11,30,14.20
2014,04,15,11,31,14.20
2014,04,15,11,32,14.10
2014,04,15,11,33,14.10
2014,04,15,11,34,14.00
2014,04,15,11,35,14.00
2014,04,15,11,36,14.00
2014,04,15,11,37,13.90
2014,04,15,11,38,13.80
2014,04,15,11,39,13.70
2014,04,15,11,40,13.60
2014,04,15,11,41,13.50
2014,04,15,11,42,13.50
2014,04,15,11,43,13.50
2014,04,15,11,44,13.50
2014,04,15,11,45,13.60
2014,04,15,11,46,13.60
2014,04,15,11,47,13.70
2014,04,15,11,48,13.70
2014,04,15,11,49,13.70
2014,04,15,11,50,13.70
2014,04,15,11,51,13.70
2014,04,15,11,52,13.80
2014,04,15,11,53,13.80
2014,04,15,11,54,13.80
2014,04,15,11,55,13.90
2014,04,15,11,56,13.90
2014,04,15,11,57,14.00
2014,04,15,11,58,14.00
2014,04,15,11,59,14.10
2014,04,15,12,00,14.10
2014,04,15,12,01,14.10
2014,04,15,12,02,14.10
2014,04,15,12,03,14.10
2014,04,15,12,04,14.20
2014,04,15,12,05,14.20
2014,04,15,12,06,14.20
2014,04,15,12,07,14.20
2014,04,15,12,08,14.20
2014,04,15,12,09,14.20
2014,04,15,12,10,14.20
2014,04,15,12,11,14.20
2014,04,15,12,12,14.20
2014,04,15,12,13,14.20
2014,04,15,12,14,14.10
2014,04,15,12,15,14.10
2014,04,15,12,16,14.10
2014,04,15,12,17,14.10
2014,04,15,12,18,14.20
2014,04,15,12,19,14.20
2014,04,15,12,20,14.30
2014,04,15,12,21,14.30
2014,04,15,12,22,14.30
2014,04,15,12,23,14.30
2014,04,15,12,24,14.30
2014,04,15,12,25,14.30
2014,04,15,12,26,14.20
2014,04,15,12,27,14.10
2014,04,15,12,28,14.00
2014,04,15,12,29,13.90
2014,04,15,12,30,14.00
2014,04,15,12,31,14.10
2014,04,15,12,32,14.10
2014,04,15,12,33,14.10
2014,04,15,12,34,14.10
2014,04,15,12,35,14.10
2014,04,15,12,36,14.10
2014,04,15,12,37,14.20
2014,04,15,12,38,14.20
2014,04,15,12,39,14.20
2014,04,15,12,40,14.20
2014,04,15,12,41,14.20
2014,04,15,12,42,14.10
2014,04,15,12,43,14.00
2014,04,15,12,44,13.90
2014,04,15,12,45,13.80
2014,04,15,12,46,13.80
2014,04,15,12,47,13.80
2014,04,15,12,48,13.80
2014,04,15,12,49,13.80
2014,04,15,12,50,13.90
2014,04,15,12,51,13.90
2014,04,15,12,52,13.90
2014,04,15,12,53,13.90
2014,04,15,12,54,13.80
2014,04,15,12,55,13.80
2014,04,15,12,56,13.80
2014,04,15,12,57,13.80
2014,04,15,12,58,13.80
2014,04,15,12,59,13.80
2014,04,15,13,00,13.80
2014,04,15,13,01,13.80
2014,04,15,13,02,13.90
2014,04,15,13,03,13.90
2014,04,15,13,04,13.90
2014,04,15,13,05,13.80
2014,04,15,13,06,13.80
2014,04,15,13,07,13.80
2014,04,15,13,08,13.90
2014,04,15,13,09,13.90
2014,04,15,13,10,14.00
2014,04,15,13,11,14.10
2014,04,15,13,12,14.20
2014,04,15,13,13,14.20
2014,04,15,13,14,14.20
2014,04,15,13,15,14.20
2014,04,15,13,16,14.20
2014,04,15,13,17,14.30
2014,04,15,13,18,14.30
2014,04,15,13,19,14.30
2014,04,15,13,20,14.40
2014,04,15,13,21,14.40
2014,04,15,13,22,14.40
2014,04,15,13,23,14.40
2014,04,15,13,24,14.40
2014,04,15,13,25,14.30
2014,04,15,13,26,14.30
2014,04,15,13,27,14.30
2014,04,15,13,28,14.30
2014,04,15,13,29,14.30
2014,04,15,13,30,14.30
2014,04,15,13,31,14.40
2014,04,15,13,32,14.50
2014,04,15,13,33,14.60
2014,04,15,13,34,14.70
2014,04,15,13,35,14.70
2014,04,15,13,36,14.80
2014,04,15,13,37,14.80
2014,04,15,13,38,14.80
2014,04,15,13,39,14.90
2014,04,15,13,40,14.90
2014,04,15,13,41,14.90
2014,04,15,13,42,14.90
2014,04,15,13,43,15.00
2014,04,15,13,44,15.00
2014,04,15,13,45,15.00
2014,04,15,13,46,15.10
2014,04,15,13,47,15.20
2014,04,15,13,48,15.20
2014,04,15,13,49,15.20
2014,04,15,13,50,15.20
2014,04,15,13,51,15.20
2014,04,15,13,52,15.20
2014,04,15,13,53,15.20
2014,04,15,13,54,15.30
2014,04,15,13,55,15.30
2014,04,15,13,56,15.30
2014,04,15,13,57,15.20
2014,04,15,13,58,15.10
2014,04,15,13,59,15.10
2014,04,15,14,00,15.10
2014,04,15,14,01,15.10
2014,04,15,14,02,15.10
2014,04,15,14,03,15.10
2014,04,15,14,04,15.10
2014,04,15,14,05,15.10
2014,04,15,14,06,15.10
2014,04,15,14,07,15.20
2014,04,15,14,08,15.10
2014,04,15,14,09,15.10
2014,04,15,14,10,15.00
2014,04,15,14,11,15.00
2014,04,15,14,12,14.90
2014,04,15,14,13,14.90
2014,04,15,14,14,14.90
2014,04,15,14,15,15.00
2014,04,15,14,16,15.00
2014,04,15,14,17,15.00
2014,04,15,14,18,14.90
2014,04,15,14,19,14.90
2014,04,15,14,20,14.90
2014,04,15,14,21,14.90
2014,04,15,14,22,15.00
2014,04,15,14,23,15.10
2014,04,15,14,24,15.10
2014,04,15,14,25,15.10
2014,04,15,14,26,15.10
2014,04,15,14,27,15.10
2014,04,15,14,28,15.10
2014,04,15,14,29,15.10
2014,04,15,14,30,15.10
2014,04,15,14,31,15.00
2014,04,15,14,32,15.10
2014,04,15,14,33,15.10
2014,04,15,14,34,15.20
2014,04,15,14,35,15.20
2014,04,15,14,36,15.20
2014,04,15,14,37,15.20
2014,04,15,14,38,15.10
2014,04,15,14,39,15.10
2014,04,15,14,40,15.00
2014,04,15,14,41,15.00
2014,04,15,14,42,15.00
2014,04,15,14,43,14.90
2014,04,15,14,44,14.90
2014,04,15,14,45,14.80
2014,04,15,14,46,14.60
2014,04,15,14,47,14.50
2014,04,15,14,48,14.30
2014,04,15,14,49,14.30
2014,04,15,14,50,14.20
2014,04,15,14,51,14.20
2014,04,15,14,52,14.20
2014,04,15,14,53,14.10
2014,04,15,14,54,14.10
2014,04,15,14,55,14.10
2014,04,15,14,56,14.10
2014,04,15,14,57,14.10
2014,04,15,14,58,14.10
2014,04,15,14,59,14.10
2014,04,15,15,00,14.10
2014,04,15,15,01,14.20
2014,04,15,15,02,14.20
2014,04,15,15,03,14.20
2014,04,15,15,04,14.20
2014,04,15,15,05,14.20
2014,04,15,15,06,14.20
2014,04,15,15,07,14.10
2014,04,15,15,08,14.10
2014,04,15,15,09,14.10
2014,04,15,15,10,14.10
2014,04,15,15,11,14.10
2014,04,15,15,12,14.10
2014,04,15,15,13,14.00
2014,04,15,15,14,14.00
2014,04,15,15,15,14.00
2014,04,15,15,16,14.00
2014,04,15,15,17,14.00
2014,04,15,15,18,14.00
2014,04,15,15,19,14.10
2014,04,15,15,20,14.10
2014,04,15,15,21,14.00
2014,04,15,15,22,14.00
2014,04,15,15,23,13.90
2014,04,15,15,24,13.90
2014,04,15,15,25,13.90
2014,04,15,15,26,14.00
2014,04,15,15,27,14.00
2014,04,15,15,28,14.10
2014,04,15,15,29,14.10
2014,04,15,15,30,14.20
2014,04,15,15,31,14.20
2014,04,15,15,32,14.30
2014,04,15,15,33,14.30
2014,04,15,15,34,14.30
2014,04,15,15,35,14.30
2014,04,15,15,36,14.30
2014,04,15,15,37,14.20
2014,04,15,15,38,14.20
2014,04,15,15,39,14.20
2014,04,15,15,40,14.20
2014,04,15,15,41,14.20
2014,04,15,15,42,14.10
2014,04,15,15,43,14.10
2014,04,15,15,44,14.10
2014,04,15,15,45,14.10
2014,04,15,15,46,14.00
2014,04,15,15,47,14.00
2014,04,15,15,48,14.00
2014,04,15,15,49,13.90
2014,04,15,15,50,13.90
2014,04,15,15,51,13.90
2014,04,15,15,52,13.90
2014,04,15,15,53,13.80
2014,04,15,15,54,13.80
2014,04,15,15,55,13.70
2014,04,15,15,56,13.70
2014,04,15,15,57,13.60
2014,04,15,15,58,13.60
2014,04,15,15,59,13.60
2014,04,15,16,00,13.60
2014,04,15,16,01,13.60
2014,04,15,16,02,13.60
2014,04,15,16,03,13.50
2014,04,15,16,04,13.50
2014,04,15,16,05,13.50
2014,04,15,16,06,13.50
2014,04,15,16,07,13.50
2014,04,15,16,08,13.50
2014,04,15,16,09,13.50
2014,04,15,16,10,13.50
2014,04,15,16,11,13.60
2014,04,15,16,12,13.60
2014,04,15,16,13,13.60
2014,04,15,16,14,13.50
2014,04,15,16,15,13.40
2014,04,15,16,16,13.30
2014,04,15,16,17,13.30
2014,04,15,16,18,13.20
2014,04,15,16,19,13.20
2014,04,15,16,20,13.10
2014,04,15,16,21,13.10
2014,04,15,16,22,13.20
2014,04,15,16,23,13.20
2014,04,15,16,24,13.20
2014,04,15,16,25,13.30
2014,04,15,16,26,13.30
2014,04,15,16,27,13.30
2014,04,15,16,28,13.30
2014,04,15,16,29,13.30
2014,04,15,16,30,13.30
2014,04,15,16,31,13.30
2014,04,15,16,32,13.30
2014,04,15,16,33,13.40
2014,04,15,16,34,13.40
2014,04,15,16,35,13.40
2014,04,15,16,36,13.50
2014,04,15,16,37,13.50
2014,04,15,16,38,13.60
2014,04,15,16,39,13.60
2014,04,15,16,40,13.60
2014,04,15,16,41,13.60
2014,04,15,16,42,13.70
2014,04,15,16,43,13.70
2014,04,15,16,44,13.70
2014,04,15,16,45,13.70
2014,04,15,16,46,13.80
2014,04,15,16,47,13.80
2014,04,15,16,48,13.80
2014,04,15,16,49,13.80
2014,04,15,16,50,13.80
2014,04,15,16,51,13.80
2014,04,15,16,52,13.80
2014,04,15,16,53,13.80
2014,04,15,16,54,13.70
2014,04,15,16,55,13.70
2014,04,15,16,56,13.70
2014,04,15,16,57,13.70
2014,04,15,16,58,13.70
2014,04,15,16,59,13.70
2014,04,15,17,00,13.70
2014,04,15,17,01,13.70
2014,04,15,17,02,13.80
2014,04,15,17,03,13.80
2014,04,15,17,04,13.80
2014,04,15,17,05,13.80
2014,04,15,17,06,13.90
2014,04,15,17,07,13.90
2014,04,15,17,08,13.90
2014,04,15,17,09,13.90
2014,04,15,17,10,14.00
2014,04,15,17,11,13.90
2014,04,15,17,12,13.90
2014,04,15,17,13,13.90
2014,04,15,17,14,13.80
2014,04,15,17,15,13.80
2014,04,15,17,16,13.80
2014,04,15,17,17,13.80
2014,04,15,17,18,13.80
2014,04,15,17,19,13.80
2014,04,15,17,20,13.80
2014,04,15,17,21,13.80
2014,04,15,17,22,13.80
2014,04,15,17,23,13.80
2014,04,15,17,24,13.80
2014,04,15,17,25,13.80
2014,04,15,17,26,13.80
2014,04,15,17,27,13.80
2014,04,15,17,28,13.80
2014,04,15,17,29,13.80
2014,04,15,17,30,13.80
2014,04,15,17,31,13.80
2014,04,15,17,32,13.80
2014,04,15,17,33,13.80
2014,04,15,17,34,13.70
2014,04,15,17,35,13.70
2014,04,15,17,36,13.70
2014,04,15,17,37,13.70
2014,04,15,17,38,13.70
2014,04,15,17,39,13.70
2014,04,15,17,40,13.70
2014,04,15,17,41,13.60
2014,04,15,17,42,13.60
2014,04,15,17,43,13.60